CZ-6A DEB, 60864

Orbit data source: Space-Track

CZ-6A DEB, 60864 is space debris in LEO originally from a launch on Tue, 06 Aug 2024 UTC launched from the Taiyaun Space Center, China (TSC). Debris objects in space refer to the collection of defunct objects orbiting the Earth. Examples of debris include non-operational satellites, rocket bodies, and fragments generated from explosions, collisions, or faulty payload assembly.

Loading next visibility...
Identifier
60864, 2024-140JT
Orbit
LEO
Country
Flag of CNCN / PRC
Related business
Manufacturer
SAST
Mission
Spacecraft
Bus & Motor
Unknown
Mass
Unknown
Launch date (UTC)
2024-08-06 (2 years ago)
Launch vehicle
Unknown
Launch site
Taiyaun Space Center, China (TSC)
Object type
Payload
Rocket body
Debris
Shape & HBR
Unknown shape, 0.1 m
Radar Cross Section
Medium (>0.1 m² and <1 m²)

Expand to show TLE details & history
Last TLE update: 11 hours ago

TLE from 11 hours ago
0 CZ-6A DEB
1 60864U 24140JT  26171.37452580  .00001384  00000-0  48010-3 0  9998
2 60864  89.4138 306.2294 0015821 350.1027   9.9858 14.35080359 95944
Epoch: 2026-06-20T08:59Z
TLE epoch observation values (Epoch: 2026-06-20T08:59:19.029Z)
Latitude
0.00005°
Longitude
-97.18995°
Altitude
766.728 km
Speed
7.477 km/s
True Right ascension
20h 24m 55s
True Declination
0° 00' 00"
Sunlit
Object was in full shadow at epoch
Visualization orbit readout
Latitude
Unknown
Longitude
Unknown
Altitude
Unknown
Speed
Unknown
Apparent Right ascension
Unknown
Apparent Declination
Unknown
Sunlit
N/A
Visualization observer readout
Local Sidereal Time
07:20:48
Azimuth
Unknown
Elevation
Unknown
Doppler factor
Unknown
Orbital elements
Apogee altitude
783.039 km
Perigee altitude
760.415 km
Semi-major axis
7,149.864 km
Eccentricity
0.00158
Inclination
89.4138°
RAAN
306.2294°
Arg. of periapsis
350.1027°
True anomaly
10.0173°
Mean anomaly
9.9858°
Eccentric anomaly
10.00154°
Mean motion
3.59002 °/min
Orbital period
100.28 mins
BSTAR
0.0004801
Loading maneuver chart data...
Computing Atmospheric mass density...
Loading historical data...
Loading historical data...
Loading historical data...
Loading historical data...
Loading historical data...
Loading historical data...
Loading historical data...

Documentation

Showing up to 5 results
|